Regional Weather Roundup
Issued by NWS Albany, NY

Home | Current Version | Previous Version | Text Only | Print | Product List | Glossary On
Versions: 1 2 3 4 5 6 7 8 9 10 11 12 13 14 15 16 17 18 19 20 21 22 23 24 25 26 27
000
ASUS41 KALY 192210
RWRALY

NEW YORK STATE HOURLY WEATHER ROUNDUP
NATIONAL WEATHER SERVICE ALBANY NY
600 PM EDT SAT APR 19 2014

NOTE: "FAIR" INDICATES FEW OR NO CLOUDS BELOW 12,000 FEET WITH NO
SIGNIFICANT WEATHER AND/OR NO OBSTRUCTIONS TO VISIBILITY.

NYZ032-033-038>043-046>054-057>066-NYZ062>081-192300-
EAST


CITY           SKY/WX    TMP DP  RH WIND       PRES   REMARKS
ALBANY         MOSUNNY   58  24  27 N13       30.30R
GLENS FALLS    SUNNY     57  25  29 N18       30.32S
POUGHKEEPSIE   MOSUNNY   61  24  24 N14       30.26R
NEWBURGH       MOSUNNY   63  25  23 NE14G23   30.26R
MONTGOMERY     MOSUNNY   62  24  23 NE12      30.25R
WHITE PLAINS   SUNNY     62  18  18 N10G20    30.24R
ISLIP          PTSUNNY   63  24  22 N12       30.23R
NEW YORK CITY  PTSUNNY   64  24  21 E12       30.24R
CENTRAL PARK   MOSUNNY   66  22  18 VRB5      30.26R
$$

NYZ005>009-017-018-044>046-055-056-192300-
CENTRAL


CITY           SKY/WX    TMP DP  RH WIND       PRES   REMARKS
FULTON         SUNNY     50  26  39 N5        30.40S
SYRACUSE       MOSUNNY   51  27  39 NW8       30.39R
ROME           SUNNY     53  24  32 NW14      30.37S
ELMIRA         SUNNY     52  26  36 N12G18    30.36S
BINGHAMTON     SUNNY     50  25  37 N10       30.32S
MONTICELLO     MOSUNNY   54  21  28 NW8G17    30.29R
$$

NYZ026>034-041>043-192300-
NORTH


CITY           SKY/WX    TMP DP  RH WIND       PRES   REMARKS
WATERTOWN      SUNNY     46  31  55 SW9       30.40R
FORT DRUM      NOT AVBL
MASSENA        SUNNY     50  20  30 N10       30.41R
SARANAC LAKE   SUNNY     43  21  41 VRB5      30.33R
PLATTSBURGH    MOSUNNY   49  23  36 NW14G23   30.36R
$$

NYZ001>004-010>016-019>021-192300-
WEST


CITY           SKY/WX    TMP DP  RH WIND       PRES   REMARKS
NIAGARA FALLS  MOSUNNY   51  27  39 NE9       30.40
BUFFALO        MOSUNNY   51  26  37 NE10      30.39S
DUNKIRK        SUNNY     46  29  51 N10       30.39S
JAMESTOWN      SUNNY     52  28  40 NE10      30.34S
WELLSVILLE     SUNNY     51  24  34 NE10      30.34S
ROCHESTER      MOSUNNY   50  25  37 NE9       30.42S
PENN YAN       SUNNY     49  27  42 N9        30.39S
$$

             KEY
       WCI = WIND CHILL INDEX
       VSB = VISIBILITY
       HX  = HEAT INDEX
$$



USA.gov is the U.S. government's official web portal to all federal, state and local government web resources and services.